Home   Weather   Amsterdam Island   Past weeks

Flag for French Southern Territories Past Weather in Amsterdam Island, French Southern Territories — Yesterday and Last 2 Weeks

Now
62 °F

Cool.


Feels Like: 62 °F
Forecast: 58 / 64 °F
Wind: 16 mph from West

Location: Martin De Vivies Ile Amsterdam

Current Time: Apr 30, 2017 at 12:33:03 pm

Latest Report: Apr 30, 2017 at 12:00 pm


Visibility: N/A

Pressure: 29.90 "Hg

Humidity: 70%

Dew Point: 52 °F

Location of Amsterdam IslandLocation

Past Weather in Amsterdam Island — Graph

°F

Amsterdam Island Temperature Yesterday

Maximum temperature yesterday: 58 °F (at 11:00 am)
Minimum temperature yesterday: 50 °F (at 3:00 am)
Average temperature yesterday: 54 °F

High & Low Weather Summary for the Past Weeks

 TemperatureHumidityPressure
High71 °F (Apr 25, 12:00 pm)96% (Apr 23, 7:00 am)30.36 "Hg (Apr 23, 7:00 am)
Low50 °F (Apr 29, 3:00 am)53% (Apr 20, 2:00 pm)29.58 "Hg (Apr 24, 3:00 am)
Average63 °F78%30.02 "Hg
* Reported Apr 15 11:00 am — Apr 30 11:00 am, Amsterdam Island, Weather by CustomWeather, © 2017

Note: Actual official high and low records may vary slightly from our data, if they occured in-between our weather recording intervals... More about our weather records

Advertising

Amsterdam Island Weather History for the Previous 24 Hours

Scroll right to see more
 ConditionsComfort  
Time TempWeatherWind HumidityBarometerVisibility
11:00 am
Sun, Apr 30
61 °FCool.13 mph70%29.91 "HgN/A
10:00 am60 °FCool.7 mph77%29.93 "HgN/A
9:00 am61 °FCool.6 mph67%29.94 "HgN/A
8:00 am59 °FCool.5 mph70%29.94 "HgN/A
7:00 am54 °FCool.9 mph79%29.93 "HgN/A
6:00 am54 °FCool.9 mph80%29.93 "HgN/A
5:00 am54 °FCool.6 mph79%29.93 "HgN/A
4:00 am54 °FCool.9 mph85%29.95 "HgN/A
3:00 am54 °FCool.12 mph88%29.97 "HgN/A
2:00 am54 °FCool.14 mph83%30.00 "HgN/A
1:00 am53 °FCool.14 mph84%30.03 "HgN/A
12:00 am53 °FCool.10 mph84%30.07 "HgN/A
10:00 pm
Sat, Apr 29
54 °FCool.8 mph81%30.14 "HgN/A
9:00 pm53 °FCool.9 mph83%30.16 "HgN/A
8:00 pm53 °FCool.8 mph80%30.20 "HgN/A
7:00 pm53 °FCool.9 mph79%30.20 "HgN/A
6:00 pm54 °FCool.8 mph71%30.22 "HgN/A
5:00 pm57 °FCool.7 mph60%30.23 "HgN/A
4:00 pm57 °FCool.5 mph61%30.25 "HgN/A
3:00 pm57 °FCool.5 mph61%30.27 "HgN/A
2:00 pm57 °FRefreshingly cool.6 mph60%30.27 "HgN/A
1:00 pm57 °FRefreshingly cool.7 mph58%30.26 "HgN/A
12:00 pm58 °FRefreshingly cool.5 mph56%30.32 "HgN/A
Weather by CustomWeather, © 2017

See weather overviewHow to use our weather pages